Sable: Past 24 Hour Conditions

 

St. Lawrence

09:30 AM NDT 30 October 2014
This table is a summary of hourly weather conditions for the past 24 hours.
Date / Time
(NDT)
Wind(knots) Conditions Visibility(km) Pressure(kPa) Air tempC) Relative humidity(%) Dew pointC)
30 October 2014
9:30 SW 22 gust 30 N/A N/A 100.7 14 96 13
8:30 SW 21 gust 29 N/A N/A 100.7 14 96 13
7:30 SW 24 gust 31 N/A N/A 100.7 13 96 13
6:30 SW 15 gust 20 N/A N/A 100.8 12 95 12
5:30 SSW 16 gust 22 N/A N/A 100.9 12 94 11
4:30 SSW 15 gust 20 N/A N/A 101.0 12 93 10
3:30 SSW 14 gust 20 N/A N/A 101.1 11 93 10
2:30 S 12 gust 21 N/A N/A 101.2 10 92 9
1:30 SSE 10 gust 15 N/A N/A 101.3 9 91 8
0:30 S 11 gust 18 N/A N/A 101.5 9 89 7
29 October 2014
23:30 S 13 N/A N/A 101.6 9 89 7
22:30 S 11 gust 17 N/A N/A 101.6 8 88 7
21:30 SSW 12 gust 17 N/A N/A 101.7 8 87 6
20:30 S 10 N/A N/A 101.8 8 87 6
19:30 SSW 7 N/A N/A 101.8 7 86 5
18:30 SSW 7 N/A N/A 101.8 6 86 4
17:30 SW 6 N/A N/A 101.9 6 84 4
16:30 W 5 N/A N/A 101.9 6 82 3
15:30 S 4 N/A N/A 101.9 6 79 3
14:30 WSW 9 N/A N/A 101.9 6 78 3
13:30 SSW 7 N/A N/A 101.9 7 77 3
12:30 W 4 N/A N/A 102.0 6 77 3
11:30 WSW 4 N/A N/A 102.0 6 75 2
10:30 NNW 6 N/A N/A 102.0 6 76 2
9:30 N 8 N/A N/A 102.0 5 80 2
 
Map of Atlantic - Newfoundland marine weather areas Southwestern Grand Banks - 44138 Banquereau - 44139 Tail of the Bank - 44140 Nickerson Bank - 44251 Northeast Burgeo Bank - 44255 Blanc-Sablon Airport Cap Whittle Chevery Natashquan Airport Heath Point Miscou Island Grand Étang Ingonish Beach North Mountain St.Paul Island J.A. Douglas McCurdy Sydney Airport Charlottetown Airport East Point North Cape Argentia Bonavista Burgeo Cape Race Corner Brook Daniel's Harbour Englee Ferolle Point La Scie Port aux Basques Rocky Harbour Sagona Island St. Anthony Airport St. John's Int'l Airport St. Lawrence Stephenville Airport Twillingate Winterland Wreckhouse Cartwright Airport Mary's Harbour Grates Cove Pool's Island Marticot Island Long Pond Îles de la Madeleine Airport
Legend: buoyBuoy land stationLand Station